Regional Weather Roundup
Issued by NWS

Home | Current Version | Previous Version | Graphics & Text | Print | Product List | Glossary On
Versions: 1 2 3 4 5 6 7 8 9 10 11 12 13 14 15 16 17 18 19 20 21 22 23 24 25 26 27 28 29 30 31 32 33 34 35 36 37 38 39 40 41 42 43 44 45 46 47 48 49 50
000
ASUS43 KFSD 230402
RWRSD

WEATHER ROUNDUP FOR SOUTH DAKOTA
NATIONAL WEATHER SERVICE SIOUX FALLS SD
1100 PM CDT FRI JUL 22 2016

NOTE: "FAIR" INDICATES FEW OR NO CLOUDS BELOW 12,000 FEET WITH NO
SIGNIFICANT WEATHER AND/OR OBSTRUCTIONS TO VISIBILITY.


SDZ001>005-009-010-012>017-230500-
NORTHWEST AND NORTH CENTRAL SOUTH DAKOTA

CITY           SKY/WX    TMP DP  RH WIND       PRES   REMARKS
BUFFALO          N/A     73  64  73 E23G31    29.85R
FAITH            N/A     72  58  61 E22G30    29.95R
MOBRIDGE       CLOUDY    72  64  76 NE12      29.95F
$$

SDZ012>016-024>037-041>051-057-063-072>074-230500-
SOUTHWEST AND SOUTH CENTRAL SOUTH DAKOTA

CITY           SKY/WX    TMP DP  RH WIND       PRES   REMARKS
RAPID CTY ARPT CLEAR     74  58  57 S7        29.95R
PIERRE         CLOUDY    81  67  62 E16       29.91S
CUSTER         CLEAR     69  49  48 VRB3      30.12R
ELLSWORTH AFB  MOCLDY    77  58  52 S10       29.94R
PHILIP         CLOUDY    80  60  50 E17       29.90S
PINE RIDGE     CLOUDY    83  51  33 S20G35    29.94R
WINNER         FAIR      86  76  71 SE13      29.93S HX  96
$$

SDZ004>011-016>023-039-040-230500-
NORTHEAST SOUTH DAKOTA

CITY           SKY/WX    TMP DP  RH WIND       PRES   REMARKS
ABERDEEN       MOCLDY    77  69  76 SW5G17    29.99R
WATERTOWN      MOCLDY    76  68  76 NE7       29.99R
BROOKINGS      CLOUDY    79  72  79 E10       29.96S
SISSETON         N/A     73  70  90 CALM      29.97F
$$

SDZ017-020-022-023-036>040-048>070-230500-
SOUTHEAST SOUTH DAKOTA

CITY           SKY/WX    TMP DP  RH WIND       PRES   REMARKS
SIOUX FALLS    CLOUDY    83  78  85 E9        29.93R
HURON          CLOUDY    82  76  81 NE5       29.93R
CHAMBERLAIN    CLOUDY    84  79  85 E3        29.93R HX  95
MITCHELL       CLOUDY    83  78  85 SE7       29.91S
YANKTON        CLOUDY    82  79  89 E6        29.89S
$$

ABBREVIATIONS USED IN REMARKS
   TC - TEMPERATURE IN CELSIUS
  WCI - WIND CHILL INDEX
   HX - HEAT INDEX
  VSB - VISIBILITY




USA.gov is the U.S. government's official web portal to all federal, state and local government web resources and services.